This is the latest recevied weather packets stored in our database for station/object KGRR-WX. If no packets are shown the sender has not sent any weather packets the latest 10 day(s).
| Time | Temp. | Humidity | Pressure | Rain* | Wind** | Luminosity | Snow |
|---|---|---|---|---|---|---|---|
| 1788529510 | 22.22° C | 96% | 984.9 hPa | 0.25 mm | - | - | - |
| 1788528611 | 21.67° C | 96% | 984.9 hPa | 0.25 mm | - | - | - |
| 1788527706 | 21.11° C | 96% | 984.9 hPa | 2.03 mm | - | - | - |
| 1788526805 | 21.11° C | 93% | 986.7 hPa | 2.03 mm | - | - | - |
| 1788525912 | 20.56° C | 93% | 985.9 hPa | 3.3 mm | - | - | - |
| 1788525010 | 20.56° C | 93% | 985.9 hPa | 3.3 mm | - | - | - |
| 1788524110 | 20.56° C | 93% | 985.9 hPa | 0.76 mm | - | - | - |
| 1788523210 | 20.56° C | 93% | 985.9 hPa | 0.76 mm | - | - | - |
| 1788522331 | 20.56° C | 91% | 984.5 hPa | 0.25 mm | - | - | - |
| 1788521405 | 20.56° C | 90% | 986.4 hPa | 0.25 mm | - | - | - |
| 1788519605 | 20.56° C | 90% | 986.4 hPa | 0.25 mm | - | - | - |
| 1788518705 | 20.56° C | 94% | 984.9 hPa | 0 mm | - | - | - |
| 1788517834 | 20.56° C | 91% | 986.2 hPa | 0 mm | - | - | - |
| 1788516906 | 20° C | 91% | 986.2 hPa | 0 mm | - | - | - |
| 1788516006 | 20° C | 91% | 986.2 hPa | 0 mm | - | - | - |
| 1788515105 | 20° C | 93% | 986.9 hPa | 0 mm | - | - | - |
| 1788514205 | 19.44° C | 93% | 985.2 hPa | 0 mm | - | - | - |
| 1788513305 | 19.44° C | 93% | 985.2 hPa | 0 mm | - | - | - |
| 1788512405 | 19.44° C | 93% | 985.2 hPa | 0 mm | - | - | - |
| 1788511506 | 19.44° C | 92% | 985.4 hPa | 0 mm | - | - | - |
| 1788510605 | 19.44° C | 93% | 985.1 hPa | 0 mm | - | - | - |
| 1788509704 | 18.89° C | 93% | 985 hPa | 0 mm | - | - | - |
| 1788508805 | 19.44° C | 93% | 985 hPa | 0 mm | - | - | - |
| 1788507905 | 19.44° C | 93% | 984.9 hPa | 0 mm | - | - | - |
| 1788507005 | 18.89° C | 93% | 984.9 hPa | 0 mm | - | - | - |
* Rain latest hour (hover to see other rain measurements)
** Current wind speed in m/s (hover to see current wind gust speed)